Weather in Tunis

Tunisia     36°49′10″N   10°11′19″E
temp.,
°C
wind,
m/s
gust,
m/s
humid.,
%
clouds,
%
prec.,
mm/h
press.,
hPa
HPBL,
m
5 august, thu
thu501:00+26nw586312 0.0 1015533
04:00+25nw486376 0.0 1014475
07:00+26nw355877 0.0 1015482
10:00+30nnw44424 0.0 1015827
13:00+32ne54390 0.0 10151111
16:00+30ne56430 0.0 1014538
19:00+27ne34490 0.0 1013360
22:00+27ne125359 0.0 1014152
6 august, fri
fri601:00+26ssw11526 0.0 1013104
04:00+26ssw11505 0.0 101253
07:00+27e11435 0.0 1012126
10:00+32ne11270 0.0 1012631
13:00+35ne43250 0.0 10111034
16:00+32ne67340 0.0 1010400
19:00+32e46363 0.0 1009350
22:00+29sse34400 0.0 1010159
7 august, sat
sat701:00+28sse23494 0.0 101099
04:00+27se24540 0.0 1009102
07:00+28sse34460 0.0 1009187
10:00+36sse710250 0.0 1008783
13:00+40s89200 0.0 10071410
16:00+38se710270 0.0 1005572
19:00+34se611395 0.0 1006358
22:00+30ssw13540 0.0 1010265
8 august, sun
sun801:00+28ssw23660 0.0 1011139
04:00+28w126469 0.0 1011130
07:00+29ne116089 0.0 1011199
10:00+33ne22418 0.0 1012581
13:00+33ne64446 0.0 1013432
16:00+32ne565210 0.0 1013420
19:00+32e4551100 0.0 1013369
22:00+31sse335656 0.0 1015188
9 august, mon
mon901:00+30sse345299 0.0 1014112
04:00+28s34629 0.0 101387
07:00+29se11590 0.0 1015141
10:00+37sse24290 0.0 1015630
13:00+42ese24180 0.0 10141554
16:00+44se66160 0.0 10121742
19:00+37se572999 0.0 1013192
22:00+34sse3337100 0.0 101579